Location: Palombina Nuova
(43.6167°N, 13.4000°E)
Time: 23:03:01
(UTC+00:00)

SKYMED 3 - Pass Details

Date: 17 February 2020
Orbit: 621 x 623 km, 97.9° (Epoch: 05 April)

Event Time Altitude Azimuth Distance (km) Brightness Sun altitude
Rises 04:21:30 0° 169° (SSE) 2,890 8.1 -19.0°
Reaches altitude 10° 04:23:41 10° 170° (S) 1,989 7.3 -18.6°
Maximum altitude 04:28:01 78° 257° (WSW) 642 4.4 -17.8°
Drops below altitude 10° 04:32:23 10° 345° (NNW) 2,005 7.0 -17.0°
Sets 04:34:35 0° 346° (NNW) 2,916 7.9 -16.6°
